Wetterdaten: aktuell Freitag, 07.10.2022 18:10
Datum Zeit Temp. A. Temp. A. min Feuchte A. Luftdruck Regen Wind Richtung Richtung Sonnenschein Solar Taupunkt Windchill Windben
07.10.2022 18:10 18,7 C 18,7 C 75 % 1019,3 hPa 0,0 l/m 0,0 km/h (0 Bft) N 360 0 min 0 W/m 14,2 C 18,7 C 0,0 km/h (0 Bft)
07.10.2022 18:05 18,8 C 18,8 C 74 % 1019,3 hPa 0,0 l/m 0,0 km/h (0 Bft) N 360 0 min 0 W/m 14,1 C 18,8 C 0,0 km/h (0 Bft)
07.10.2022 18:00 18,8 C 18,8 C 74 % 1019,3 hPa 0,0 l/m 0,0 km/h (0 Bft) N 360 0 min 0 W/m 14,1 C 18,8 C 0,0 km/h (0 Bft)
07.10.2022 17:56 18,8 C 18,8 C 74 % 1019,3 hPa 0,0 l/m 0,0 km/h (0 Bft) NO 37 0 min 0 W/m 14,1 C 18,8 C 0,0 km/h (0 Bft)
07.10.2022 17:50 18,8 C 18,8 C 74 % 1019,3 hPa 0,0 l/m 0,0 km/h (0 Bft) NO 42 0 min 0 W/m 14,1 C 18,8 C 0,0 km/h (0 Bft)
07.10.2022 17:45 18,9 C 18,8 C 74 % 1019,4 hPa 0,0 l/m 0,0 km/h (0 Bft) N-NO 15 0 min 0 W/m 14,2 C 18,9 C 0,0 km/h (0 Bft)
07.10.2022 17:41 18,9 C 18,9 C 73 % 1019,4 hPa 0,0 l/m 0,0 km/h (0 Bft) NO 38 0 min 0 W/m 13,9 C 18,9 C 0,0 km/h (0 Bft)
07.10.2022 17:35 18,9 C 18,9 C 73 % 1019,4 hPa 0,0 l/m 0,3 km/h (0 Bft) N-NO 33 0 min 0 W/m 13,9 C 18,9 C 3,2 km/h (1 Bft)
07.10.2022 17:30 19,0 C 18,9 C 74 % 1019,4 hPa 0,0 l/m 0,0 km/h (0 Bft) N-NO 26 0 min 0 W/m 14,3 C 19,0 C 1,6 km/h (1 Bft)
07.10.2022 17:25 19,0 C 18,9 C 73 % 1019,4 hPa 0,0 l/m 0,0 km/h (0 Bft) NW 311 0 min 0 W/m 14,0 C 19,0 C 1,6 km/h (1 Bft)
07.10.2022 17:22 19,0 C 18,9 C 73 % 1019,5 hPa 0,0 l/m 0,0 km/h (0 Bft) N-NO 28 0 min 0 W/m 14,0 C 19,0 C 0,0 km/h (0 Bft)
07.10.2022 17:15 19,3 C 19,2 C 72 % 1019,6 hPa 0,0 l/m 0,0 km/h (0 Bft) NO 40 0 min 0 W/m 14,1 C 19,3 C 0,0 km/h (0 Bft)
07.10.2022 17:10 19,4 C 19,3 C 73 % 1019,5 hPa 0,0 l/m 0,0 km/h (0 Bft) NO 41 0 min 0 W/m 14,4 C 19,4 C 0,0 km/h (0 Bft)
07.10.2022 17:05 19,3 C 19,2 C 72 % 1019,6 hPa 0,0 l/m 0,8 km/h (0 Bft) N-NO 32 0 min 0 W/m 14,1 C 19,3 C 9,7 km/h (2 Bft)
07.10.2022 17:02 19,2 C 19,2 C 73 % 1019,6 hPa 0,0 l/m 0,3 km/h (0 Bft) N 355 0 min 0 W/m 14,2 C 19,2 C 3,2 km/h (1 Bft)
07.10.2022 16:55 19,3 C 19,3 C 72 % 1019,7 hPa 0,0 l/m 0,1 km/h (0 Bft) N-NO 26 0 min 0 W/m 14,1 C 19,3 C 6,4 km/h (2 Bft)
07.10.2022 16:50 19,5 C 19,5 C 71 % 1019,8 hPa 0,0 l/m 0,0 km/h (0 Bft) N 350 0 min 0 W/m 14,1 C 19,5 C 1,6 km/h (1 Bft)
07.10.2022 16:45 19,5 C 19,5 C 71 % 1019,8 hPa 0,0 l/m 0,0 km/h (0 Bft) N 10 0 min 0 W/m 14,1 C 19,5 C 1,6 km/h (1 Bft)
07.10.2022 16:42 19,6 C 19,5 C 72 % 1019,8 hPa 0,0 l/m 0,0 km/h (0 Bft) N 355 0 min 0 W/m 14,4 C 19,6 C 0,0 km/h (0 Bft)
07.10.2022 16:35 19,5 C 19,4 C 71 % 1019,9 hPa 0,0 l/m 0,1 km/h (0 Bft) NO 44 0 min 0 W/m 14,1 C 19,5 C 1,6 km/h (1 Bft)
07.10.2022 16:30 19,4 C 19,4 C 73 % 1020,0 hPa 0,0 l/m 0,0 km/h (0 Bft) N 10 0 min 0 W/m 14,4 C 19,4 C 0,0 km/h (0 Bft)
07.10.2022 16:25 19,6 C 19,6 C 73 % 1020,1 hPa 0,0 l/m 0,0 km/h (0 Bft) N 355 0 min 0 W/m 14,6 C 19,6 C 0,0 km/h (0 Bft)
07.10.2022 16:21 19,7 C 19,7 C 72 % 1020,1 hPa 0,0 l/m 0,0 km/h (0 Bft) NO 34 0 min 0 W/m 14,5 C 19,7 C 0,0 km/h (0 Bft)
07.10.2022 16:15 19,9 C 19,9 C 70 % 1020,2 hPa 0,0 l/m 0,0 km/h (0 Bft) N 9 0 min 0 W/m 14,3 C 19,9 C 0,0 km/h (0 Bft)
07.10.2022 16:10 20,3 C 20,3 C 69 % 1020,2 hPa 0,0 l/m 0,0 km/h (0 Bft) N-NO 20 0 min 0 W/m 14,4 C 20,3 C 0,0 km/h (0 Bft)
07.10.2022 16:05 20,3 C 20,3 C 70 % 1020,3 hPa 0,0 l/m 0,0 km/h (0 Bft) N 11 0 min 0 W/m 14,6 C 20,3 C 0,0 km/h (0 Bft)
07.10.2022 16:00 20,3 C 20,2 C 68 % 1020,3 hPa 0,0 l/m 0,0 km/h (0 Bft) NO 42 0 min 0 W/m 14,2 C 20,3 C 1,6 km/h (1 Bft)
07.10.2022 15:55 20,2 C 20,2 C 69 % 1020,3 hPa 0,0 l/m 0,0 km/h (0 Bft) N 355 0 min 0 W/m 14,3 C 20,2 C 0,0 km/h (0 Bft)
07.10.2022 15:50 20,2 C 20,2 C 69 % 1020,3 hPa 0,0 l/m 0,0 km/h (0 Bft) NO 47 0 min 0 W/m 14,3 C 20,2 C 1,6 km/h (1 Bft)
07.10.2022 15:46 20,2 C 20,0 C 69 % 1020,4 hPa 0,0 l/m 0,0 km/h (0 Bft) N 5 0 min 0 W/m 14,3 C 20,2 C 0,0 km/h (0 Bft)
07.10.2022 15:40 20,0 C 20,0 C 70 % 1020,5 hPa 0,0 l/m 0,0 km/h (0 Bft) NO 52 0 min 0 W/m 14,4 C 20,0 C 0,0 km/h (0 Bft)
07.10.2022 15:35 20,3 C 20,3 C 68 % 1020,6 hPa 0,0 l/m 0,0 km/h (0 Bft) N 355 0 min 0 W/m 14,2 C 20,3 C 0,0 km/h (0 Bft)
07.10.2022 15:30 20,4 C 20,2 C 70 % 1020,7 hPa 0,0 l/m 0,2 km/h (0 Bft) N-NO 32 0 min 0 W/m 14,7 C 20,4 C 3,2 km/h (1 Bft)
07.10.2022 15:27 20,2 C 20,1 C 70 % 1020,8 hPa 0,0 l/m 0,1 km/h (0 Bft) N-NO 22 0 min 0 W/m 14,5 C 20,2 C 3,2 km/h (1 Bft)
07.10.2022 15:20 20,3 C 20,3 C 69 % 1020,8 hPa 0,0 l/m 0,0 km/h (0 Bft) N 5 0 min 0 W/m 14,4 C 20,3 C 1,6 km/h (1 Bft)
07.10.2022 15:15 20,4 C 20,4 C 69 % 1020,9 hPa 0,0 l/m 0,2 km/h (0 Bft) N 360 0 min 0 W/m 14,5 C 20,4 C 6,4 km/h (2 Bft)
07.10.2022 15:10 20,4 C 20,3 C 68 % 1021,0 hPa 0,0 l/m 0,0 km/h (0 Bft) O-NO 64 0 min 0 W/m 14,3 C 20,4 C 1,6 km/h (1 Bft)
07.10.2022 15:07 20,3 C 20,3 C 67 % 1021,0 hPa 0,0 l/m 0,0 km/h (0 Bft) O-NO 71 0 min 0 W/m 14,0 C 20,3 C 1,6 km/h (1 Bft)
07.10.2022 15:00 20,8 C 20,6 C 67 % 1021,1 hPa 0,0 l/m 0,6 km/h (0 Bft) N-NO 33 0 min 0 W/m 14,4 C 20,8 C 6,4 km/h (2 Bft)
07.10.2022 14:55 20,6 C 20,6 C 68 % 1021,1 hPa 0,0 l/m 0,5 km/h (0 Bft) NO 49 0 min 0 W/m 14,5 C 20,6 C 8,0 km/h (2 Bft)
07.10.2022 14:50 20,8 C 20,7 C 69 % 1021,2 hPa 0,0 l/m 0,0 km/h (0 Bft) O 81 0 min 0 W/m 14,9 C 20,8 C 1,6 km/h (1 Bft)
07.10.2022 14:47 20,7 C 20,5 C 68 % 1021,2 hPa 0,0 l/m 0,1 km/h (0 Bft) O-NO 67 0 min 0 W/m 14,6 C 20,7 C 4,8 km/h (1 Bft)
07.10.2022 14:40 20,7 C 20,7 C 68 % 1021,3 hPa 0,0 l/m 0,1 km/h (0 Bft) N-NO 20 0 min 0 W/m 14,6 C 20,7 C 1,6 km/h (1 Bft)
07.10.2022 14:35 20,7 C 20,6 C 66 % 1021,4 hPa 0,0 l/m 0,3 km/h (0 Bft) NO 44 0 min 0 W/m 14,1 C 20,7 C 3,2 km/h (1 Bft)
07.10.2022 14:30 20,6 C 20,6 C 66 % 1021,4 hPa 0,0 l/m 0,1 km/h (0 Bft) NO 38 0 min 0 W/m 14,0 C 20,6 C 1,6 km/h (1 Bft)
07.10.2022 14:27 20,6 C 20,6 C 68 % 1021,4 hPa 0,0 l/m 0,6 km/h (0 Bft) NO 39 0 min 0 W/m 14,5 C 20,6 C 8,0 km/h (2 Bft)
07.10.2022 14:20 20,6 C 20,3 C 69 % 1021,6 hPa 0,0 l/m 0,0 km/h (0 Bft) NO 54 0 min 0 W/m 14,7 C 20,6 C 1,6 km/h (1 Bft)
07.10.2022 14:15 20,3 C 20,1 C 69 % 1021,7 hPa 0,0 l/m 0,2 km/h (0 Bft) N-NO 17 0 min 0 W/m 14,4 C 20,3 C 4,8 km/h (1 Bft)
07.10.2022 14:10 20,1 C 20,1 C 69 % 1021,7 hPa 0,0 l/m 0,1 km/h (0 Bft) NO 40 0 min 0 W/m 14,2 C 20,1 C 1,6 km/h (1 Bft)
07.10.2022 14:06 20,3 C 20,3 C 68 % 1021,8 hPa 0,0 l/m 0,1 km/h (0 Bft) N-NO 21 0 min 0 W/m 14,2 C 20,3 C 1,6 km/h (1 Bft)
07.10.2022 14:00 20,3 C 20,2 C 68 % 1021,9 hPa 0,0 l/m 0,7 km/h (0 Bft) NO 48 0 min 0 W/m 14,2 C 20,3 C 11,3 km/h (2 Bft)
07.10.2022 13:55 20,2 C 20,2 C 68 % 1021,9 hPa 0,0 l/m 5,3 km/h (1 Bft) O-NO 74 0 min 0 W/m 14,1 C 20,2 C 16,1 km/h (3 Bft)
07.10.2022 13:52 20,2 C 19,9 C 69 % 1022,0 hPa 0,0 l/m 1,5 km/h (1 Bft) O-NO 57 0 min 0 W/m 14,3 C 20,2 C 16,1 km/h (3 Bft)
07.10.2022 13:45 19,9 C 19,7 C 70 % 1022,2 hPa 0,0 l/m 3,4 km/h (1 Bft) NO 41 0 min 0 W/m 14,3 C 19,9 C 14,5 km/h (3 Bft)
07.10.2022 13:40 19,8 C 19,8 C 69 % 1022,3 hPa 0,0 l/m 4,7 km/h (1 Bft) NO 40 0 min 0 W/m 13,9 C 19,8 C 14,5 km/h (3 Bft)
07.10.2022 13:35 19,9 C 19,8 C 69 % 1022,4 hPa 0,0 l/m 7,5 km/h (2 Bft) NO 51 0 min 0 W/m 14,0 C 19,9 C 17,7 km/h (3 Bft)
07.10.2022 13:32 19,9 C 19,7 C 70 % 1022,4 hPa 0,0 l/m 1,3 km/h (1 Bft) O-NO 63 0 min 0 W/m 14,3 C 19,9 C 6,4 km/h (2 Bft)
07.10.2022 13:25 19,8 C 19,6 C 69 % 1022,5 hPa 0,0 l/m 3,5 km/h (1 Bft) NO 49 0 min 0 W/m 13,9 C 19,8 C 14,5 km/h (3 Bft)
07.10.2022 13:20 19,6 C 19,6 C 71 % 1022,6 hPa 0,0 l/m 1,5 km/h (1 Bft) O-NO 66 0 min 0 W/m 14,2 C 19,6 C 8,0 km/h (2 Bft)
07.10.2022 13:15 19,7 C 19,7 C 70 % 1022,6 hPa 0,0 l/m 1,6 km/h (1 Bft) NO 49 0 min 0 W/m 14,1 C 19,7 C 8,0 km/h (2 Bft)
07.10.2022 13:12 19,7 C 19,3 C 71 % 1022,6 hPa 0,0 l/m 3,8 km/h (1 Bft) O-NO 58 0 min 0 W/m 14,3 C 19,7 C 14,5 km/h (3 Bft)
07.10.2022 13:05 19,3 C 19,3 C 72 % 1022,7 hPa 0,0 l/m 1,6 km/h (1 Bft) N 360 0 min 0 W/m 14,1 C 19,3 C 9,7 km/h (2 Bft)
07.10.2022 13:00 19,3 C 19,2 C 72 % 1022,9 hPa 0,0 l/m 2,5 km/h (1 Bft) NO 38 0 min 0 W/m 14,1 C 19,3 C 12,9 km/h (3 Bft)
07.10.2022 12:55 19,3 C 19,3 C 71 % 1022,9 hPa 0,0 l/m 2,5 km/h (1 Bft) SO 130 0 min 0 W/m 13,9 C 19,3 C 8,0 km/h (2 Bft)
07.10.2022 12:52 19,3 C 19,0 C 72 % 1023,0 hPa 0,0 l/m 1,2 km/h (1 Bft) NO 55 0 min 0 W/m 14,1 C 19,3 C 6,4 km/h (2 Bft)
07.10.2022 12:45 19,0 C 18,7 C 73 % 1023,1 hPa 0,0 l/m 1,9 km/h (1 Bft) N 10 0 min 0 W/m 14,0 C 19,0 C 12,9 km/h (3 Bft)
07.10.2022 12:40 18,7 C 18,7 C 73 % 1023,2 hPa 0,0 l/m 0,2 km/h (0 Bft) N-NW 341 0 min 0 W/m 13,8 C 18,7 C 1,6 km/h (1 Bft)
07.10.2022 12:35 18,8 C 18,8 C 73 % 1023,3 hPa 0,0 l/m 1,4 km/h (1 Bft) N 5 0 min 0 W/m 13,9 C 18,8 C 4,8 km/h (1 Bft)
07.10.2022 12:32 18,8 C 18,4 C 72 % 1023,4 hPa 0,0 l/m 3,0 km/h (1 Bft) O-NO 72 0 min 0 W/m 13,6 C 18,8 C 9,7 km/h (2 Bft)
07.10.2022 12:25 18,4 C 18,3 C 72 % 1023,4 hPa 0,0 l/m 1,8 km/h (1 Bft) NO 53 0 min 0 W/m 13,3 C 18,4 C 8,0 km/h (2 Bft)
07.10.2022 12:20 18,3 C 18,2 C 75 % 1023,4 hPa 0,0 l/m 1,9 km/h (1 Bft) N-NO 31 0 min 0 W/m 13,8 C 18,3 C 11,3 km/h (2 Bft)
07.10.2022 12:15 18,5 C 18,4 C 74 % 1023,5 hPa 0,0 l/m 1,5 km/h (1 Bft) O-NO 64 0 min 0 W/m 13,8 C 18,5 C 6,4 km/h (2 Bft)
07.10.2022 12:11 18,4 C 18,2 C 72 % 1023,6 hPa 0,0 l/m 1,0 km/h (0 Bft) N-NO 32 0 min 0 W/m 13,3 C 18,4 C 3,2 km/h (1 Bft)
07.10.2022 12:05 18,2 C 18,1 C 74 % 1023,7 hPa 0,0 l/m 2,7 km/h (1 Bft) N 360 0 min 0 W/m 13,5 C 18,2 C 11,3 km/h (2 Bft)
07.10.2022 12:00 18,1 C 18,1 C 75 % 1023,7 hPa 0,0 l/m 0,7 km/h (0 Bft) NO 48 0 min 0 W/m 13,6 C 18,1 C 3,2 km/h (1 Bft)
07.10.2022 11:57 18,2 C 18,0 C 75 % 1023,7 hPa 0,0 l/m 2,4 km/h (1 Bft) O-SO 108 0 min 0 W/m 13,7 C 18,2 C 9,7 km/h (2 Bft)
07.10.2022 11:50 18,0 C 17,7 C 75 % 1023,7 hPa 0,0 l/m 1,1 km/h (1 Bft) O-NO 70 0 min 0 W/m 13,5 C 18,0 C 8,0 km/h (2 Bft)
07.10.2022 11:45 17,7 C 17,7 C 76 % 1023,8 hPa 0,0 l/m 1,7 km/h (1 Bft) N-NO 25 0 min 0 W/m 13,4 C 17,7 C 8,0 km/h (2 Bft)
07.10.2022 11:40 17,7 C 17,7 C 77 % 1023,8 hPa 0,0 l/m 2,1 km/h (1 Bft) NO 51 0 min 0 W/m 13,6 C 17,7 C 11,3 km/h (2 Bft)
07.10.2022 11:37 17,7 C 17,4 C 75 % 1023,8 hPa 0,0 l/m 1,8 km/h (1 Bft) O-NO 66 0 min 0 W/m 13,2 C 17,7 C 8,0 km/h (2 Bft)
07.10.2022 11:30 17,4 C 17,2 C 78 % 1023,9 hPa 0,0 l/m 1,7 km/h (1 Bft) N-NW 342 0 min 0 W/m 13,5 C 17,4 C 6,4 km/h (2 Bft)
07.10.2022 11:25 17,2 C 17,1 C 78 % 1023,9 hPa 0,0 l/m 1,1 km/h (1 Bft) NO 38 0 min 0 W/m 13,3 C 17,2 C 3,2 km/h (1 Bft)
07.10.2022 11:20 17,2 C 17,1 C 78 % 1024,0 hPa 0,2 l/m 1,1 km/h (1 Bft) NO 44 0 min 0 W/m 13,3 C 17,2 C 4,8 km/h (1 Bft)
07.10.2022 11:17 17,2 C 16,8 C 78 % 1024,1 hPa 0,0 l/m 1,7 km/h (1 Bft) NO 49 0 min 0 W/m 13,3 C 17,2 C 6,4 km/h (2 Bft)
07.10.2022 11:10 16,8 C 16,7 C 79 % 1024,1 hPa 0,0 l/m 0,9 km/h (0 Bft) NO 38 0 min 0 W/m 13,1 C 16,8 C 6,4 km/h (2 Bft)
07.10.2022 11:05 16,7 C 16,6 C 80 % 1024,2 hPa 0,0 l/m 1,2 km/h (1 Bft) O-NO 70 0 min 0 W/m 13,2 C 16,7 C 8,0 km/h (2 Bft)
07.10.2022 11:00 16,6 C 16,4 C 79 % 1024,3 hPa 0,0 l/m 1,0 km/h (0 Bft) O-NO 69 0 min 0 W/m 12,9 C 16,6 C 4,8 km/h (1 Bft)
07.10.2022 10:57 16,4 C 16,1 C 81 % 1024,4 hPa 0,0 l/m 1,1 km/h (1 Bft) O-NO 62 0 min 0 W/m 13,1 C 16,4 C 6,4 km/h (2 Bft)
07.10.2022 10:50 16,1 C 15,9 C 82 % 1024,3 hPa 0,0 l/m 0,7 km/h (0 Bft) N-NO 27 0 min 0 W/m 13,0 C 16,1 C 8,0 km/h (2 Bft)
07.10.2022 10:45 15,9 C 15,8 C 81 % 1024,4 hPa 0,0 l/m 0,0 km/h (0 Bft) N 355 0 min 0 W/m 12,6 C 15,9 C 1,6 km/h (1 Bft)
07.10.2022 10:40 15,8 C 15,6 C 83 % 1024,4 hPa 0,0 l/m 0,0 km/h (0 Bft) NW 306 0 min 0 W/m 12,9 C 15,8 C 0,0 km/h (0 Bft)
07.10.2022 10:37 15,6 C 15,2 C 82 % 1024,4 hPa 0,0 l/m 0,0 km/h (0 Bft) W 275 0 min 0 W/m 12,5 C 15,6 C 0,0 km/h (0 Bft)
07.10.2022 10:30 15,2 C 14,9 C 83 % 1024,6 hPa 0,0 l/m 0,0 km/h (0 Bft) W 275 0 min 0 W/m 12,3 C 15,2 C 0,0 km/h (0 Bft)
07.10.2022 10:25 14,9 C 14,7 C 84 % 1024,6 hPa 0,0 l/m 0,0 km/h (0 Bft) W 273 0 min 0 W/m 12,2 C 14,9 C 0,0 km/h (0 Bft)
07.10.2022 10:20 14,7 C 14,3 C 84 % 1024,7 hPa 0,0 l/m 0,0 km/h (0 Bft) W 273 0 min 0 W/m 12,0 C 14,7 C 0,0 km/h (0 Bft)
07.10.2022 10:16 14,3 C 14,2 C 86 % 1024,7 hPa 0,0 l/m 0,0 km/h (0 Bft) W 273 0 min 0 W/m 12,0 C 14,3 C 0,0 km/h (0 Bft)
07.10.2022 10:10 14,2 C 13,9 C 86 % 1024,7 hPa 0,0 l/m 0,0 km/h (0 Bft) W 273 0 min 0 W/m 11,9 C 14,2 C 0,0 km/h (0 Bft)
07.10.2022 10:05 13,9 C 13,8 C 85 % 1024,8 hPa 0,0 l/m 0,0 km/h (0 Bft) W 273 0 min 0 W/m 11,4 C 13,9 C 0,0 km/h (0 Bft)
07.10.2022 10:01 13,8 C 13,4 C 87 % 1024,9 hPa 0,0 l/m 0,0 km/h (0 Bft) W 273 0 min 0 W/m 11,7 C 13,8 C 0,0 km/h (0 Bft)
07.10.2022 09:55 13,4 C 13,2 C 88 % 1024,9 hPa 0,0 l/m 0,0 km/h (0 Bft) W 273 0 min 0 W/m 11,5 C 13,4 C 0,0 km/h (0 Bft)
07.10.2022 09:50 13,2 C 12,9 C 88 % 1024,9 hPa 0,0 l/m 0,0 km/h (0 Bft) W 273 0 min 0 W/m 11,3 C 13,2 C 0,0 km/h (0 Bft)
07.10.2022 09:45 12,9 C 12,7 C 89 % 1024,9 hPa 0,0 l/m 0,0 km/h (0 Bft) W 273 0 min 0 W/m 11,1 C 12,9 C 0,0 km/h (0 Bft)
07.10.2022 09:42 12,7 C 11,8 C 90 % 1025,0 hPa 0,0 l/m 0,0 km/h (0 Bft) W 273 0 min 0 W/m 11,1 C 12,7 C 0,0 km/h (0 Bft)
07.10.2022 09:35 11,8 C 11,7 C 93 % 1024,9 hPa 0,0 l/m 0,0 km/h (0 Bft) W 273 0 min 0 W/m 10,7 C 11,8 C 0,0 km/h (0 Bft)
07.10.2022 09:30 11,7 C 11,7 C 93 % 1024,9 hPa 0,0 l/m 0,0 km/h (0 Bft) W 273 0 min 0 W/m 10,6 C 11,7 C 0,0 km/h (0 Bft)
07.10.2022 09:25 11,7 C 11,6 C 93 % 1024,9 hPa 0,0 l/m 0,0 km/h (0 Bft) W 273 0 min 0 W/m 10,6 C 11,7 C 0,0 km/h (0 Bft)
07.10.2022 09:22 11,6 C 11,6 C 93 % 1025,0 hPa 0,0 l/m 0,0 km/h (0 Bft) W 273 0 min 0 W/m 10,5 C 11,6 C 0,0 km/h (0 Bft)
07.10.2022 09:15 11,6 C 11,5 C 93 % 1024,9 hPa 0,0 l/m 0,0 km/h (0 Bft) W 273 0 min 0 W/m 10,5 C 11,6 C 0,0 km/h (0 Bft)
07.10.2022 09:10 11,5 C 11,4 C 93 % 1024,9 hPa 0,0 l/m 0,0 km/h (0 Bft) W 273 0 min 0 W/m 10,4 C 11,5 C 0,0 km/h (0 Bft)
07.10.2022 09:05 11,5 C 11,4 C 93 % 1024,9 hPa 0,0 l/m 0,0 km/h (0 Bft) W 273 0 min 0 W/m 10,4 C 11,5 C 0,0 km/h (0 Bft)
07.10.2022 09:02 11,4 C 11,4 C 93 % 1025,0 hPa 0,0 l/m 0,0 km/h (0 Bft) W 273 0 min 0 W/m 10,3 C 11,4 C 0,0 km/h (0 Bft)
07.10.2022 08:55 11,4 C 11,3 C 93 % 1024,9 hPa 0,0 l/m 0,0 km/h (0 Bft) W 273 0 min 0 W/m 10,3 C 11,4 C 0,0 km/h (0 Bft)
07.10.2022 08:50 11,4 C 11,3 C 93 % 1025,0 hPa 0,0 l/m 0,0 km/h (0 Bft) W 273 0 min 0 W/m 10,3 C 11,4 C 0,0 km/h (0 Bft)
07.10.2022 08:45 11,3 C 11,3 C 93 % 1024,9 hPa 0,0 l/m 0,0 km/h (0 Bft) W 273 0 min 0 W/m 10,2 C 11,3 C 0,0 km/h (0 Bft)
07.10.2022 08:42 11,3 C 11,2 C 93 % 1024,9 hPa 0,0 l/m 0,0 km/h (0 Bft) W 273 0 min 0 W/m 10,2 C 11,3 C 0,0 km/h (0 Bft)
07.10.2022 08:35 11,2 C 11,2 C 93 % 1025,0 hPa 0,0 l/m 0,0 km/h (0 Bft) W 273 0 min 0 W/m 10,1 C 11,2 C 0,0 km/h (0 Bft)
07.10.2022 08:30 11,2 C 11,2 C 93 % 1025,0 hPa 0,0 l/m 0,0 km/h (0 Bft) W 273 0 min 0 W/m 10,1 C 11,2 C 0,0 km/h (0 Bft)
07.10.2022 08:25 11,2 C 11,2 C 93 % 1025,0 hPa 0,0 l/m 0,0 km/h (0 Bft) W 273 0 min 0 W/m 10,1 C 11,2 C 0,0 km/h (0 Bft)
07.10.2022 08:21 11,2 C 11,1 C 93 % 1024,9 hPa 0,0 l/m 0,0 km/h (0 Bft) W 273 0 min 0 W/m 10,1 C 11,2 C 0,0 km/h (0 Bft)
07.10.2022 08:15 11,2 C 11,1 C 93 % 1024,9 hPa 0,0 l/m 0,0 km/h (0 Bft) W 273 0 min 0 W/m 10,1 C 11,2 C 0,0 km/h (0 Bft)
07.10.2022 08:10 11,1 C 11,1 C 93 % 1024,9 hPa 0,0 l/m 0,0 km/h (0 Bft) W 273 0 min 0 W/m 10,0 C 11,1 C 0,0 km/h (0 Bft)
07.10.2022 08:07 11,1 C 11,1 C 93 % 1025,0 hPa 0,0 l/m 0,0 km/h (0 Bft) W 273 0 min 0 W/m 10,0 C 11,1 C 0,0 km/h (0 Bft)
07.10.2022 08:00 11,1 C 11,1 C 93 % 1025,0 hPa 0,0 l/m 0,0 km/h (0 Bft) W 275 0 min 0 W/m 10,0 C 11,1 C 0,0 km/h (0 Bft)
07.10.2022 07:55 11,1 C 11,0 C 93 % 1025,1 hPa 0,0 l/m 0,0 km/h (0 Bft) W 275 0 min 0 W/m 10,0 C 11,1 C 0,0 km/h (0 Bft)
07.10.2022 07:50 11,0 C 11,0 C 93 % 1025,1 hPa 0,0 l/m 0,0 km/h (0 Bft) W 275 0 min 0 W/m 9,9 C 11,0 C 0,0 km/h (0 Bft)
07.10.2022 07:46 11,0 C 11,0 C 93 % 1025,1 hPa 0,2 l/m 0,0 km/h (0 Bft) W 275 0 min 0 W/m 9,9 C 11,0 C 0,0 km/h (0 Bft)
07.10.2022 07:40 11,0 C 10,9 C 93 % 1025,1 hPa 0,0 l/m 0,0 km/h (0 Bft) W 276 0 min 0 W/m 9,9 C 11,0 C 0,0 km/h (0 Bft)
07.10.2022 07:35 10,9 C 10,9 C 93 % 1025,2 hPa 0,0 l/m 0,0 km/h (0 Bft) W 277 0 min 0 W/m 9,8 C 10,9 C 0,0 km/h (0 Bft)
07.10.2022 07:30 10,9 C 10,9 C 93 % 1025,2 hPa 0,0 l/m 0,0 km/h (0 Bft) W 278 0 min 0 W/m 9,8 C 10,9 C 0,0 km/h (0 Bft)
07.10.2022 07:26 10,9 C 10,9 C 93 % 1025,2 hPa 0,0 l/m 0,0 km/h (0 Bft) W 278 0 min 0 W/m 9,8 C 10,9 C 0,0 km/h (0 Bft)
07.10.2022 07:20 10,9 C 10,9 C 93 % 1025,2 hPa 0,0 l/m 0,0 km/h (0 Bft) W 278 0 min 0 W/m 9,8 C 10,9 C 0,0 km/h (0 Bft)
07.10.2022 07:15 10,9 C 10,9 C 93 % 1025,3 hPa 0,0 l/m 0,0 km/h (0 Bft) W-NW 284 0 min 0 W/m 9,8 C 10,9 C 0,0 km/h (0 Bft)
07.10.2022 07:10 10,9 C 10,9 C 92 % 1025,3 hPa 0,0 l/m 0,0 km/h (0 Bft) W-NW 288 0 min 0 W/m 9,7 C 10,9 C 0,0 km/h (0 Bft)
07.10.2022 07:05 10,9 C 10,9 C 92 % 1025,3 hPa 0,0 l/m 0,0 km/h (0 Bft) W-NW 288 0 min 0 W/m 9,7 C 10,9 C 0,0 km/h (0 Bft)
07.10.2022 07:00 10,9 C 10,9 C 92 % 1025,4 hPa 0,0 l/m 0,0 km/h (0 Bft) W-NW 288 0 min 0 W/m 9,7 C 10,9 C 0,0 km/h (0 Bft)
07.10.2022 06:55 10,9 C 10,8 C 92 % 1025,5 hPa 0,0 l/m 0,0 km/h (0 Bft) W-NW 288 0 min 0 W/m 9,7 C 10,9 C 0,0 km/h (0 Bft)
07.10.2022 06:50 10,9 C 10,8 C 92 % 1025,5 hPa 0,0 l/m 0,0 km/h (0 Bft) W-NW 288 0 min 0 W/m 9,7 C 10,9 C 0,0 km/h (0 Bft)
07.10.2022 06:45 10,9 C 10,8 C 92 % 1025,5 hPa 0,0 l/m 0,0 km/h (0 Bft) W-NW 288 0 min 0 W/m 9,7 C 10,9 C 0,0 km/h (0 Bft)
07.10.2022 06:40 10,8 C 10,8 C 92 % 1025,5 hPa 0,0 l/m 0,0 km/h (0 Bft) W-NW 288 0 min 0 W/m 9,6 C 10,8 C 0,0 km/h (0 Bft)
07.10.2022 06:35 10,9 C 10,8 C 92 % 1025,5 hPa 0,0 l/m 0,0 km/h (0 Bft) W-NW 288 0 min 0 W/m 9,7 C 10,9 C 0,0 km/h (0 Bft)
07.10.2022 06:30 10,8 C 10,8 C 92 % 1025,6 hPa 0,0 l/m 0,0 km/h (0 Bft) W-NW 288 0 min 0 W/m 9,6 C 10,8 C 0,0 km/h (0 Bft)
07.10.2022 06:25 10,8 C 10,8 C 92 % 1025,6 hPa 0,0 l/m 0,0 km/h (0 Bft) W-NW 288 0 min 0 W/m 9,6 C 10,8 C 0,0 km/h (0 Bft)
07.10.2022 06:20 10,8 C 10,8 C 92 % 1025,6 hPa 0,0 l/m 0,0 km/h (0 Bft) W-NW 288 0 min 0 W/m 9,6 C 10,8 C 0,0 km/h (0 Bft)
07.10.2022 06:15 10,8 C 10,8 C 92 % 1025,6 hPa 0,0 l/m 0,0 km/h (0 Bft) W-NW 288 0 min 0 W/m 9,6 C 10,8 C 0,0 km/h (0 Bft)
07.10.2022 06:10 10,8 C 10,8 C 92 % 1025,6 hPa 0,0 l/m 0,0 km/h (0 Bft) W-NW 288 0 min 0 W/m 9,6 C 10,8 C 0,0 km/h (0 Bft)
07.10.2022 06:05 10,8 C 10,8 C 92 % 1025,7 hPa 0,0 l/m 0,0 km/h (0 Bft) W-NW 288 0 min 0 W/m 9,6 C 10,8 C 0,0 km/h (0 Bft)
07.10.2022 06:00 10,8 C 10,8 C 92 % 1025,7 hPa 0,0 l/m 0,0 km/h (0 Bft) W-NW 288 0 min 0 W/m 9,6 C 10,8 C 0,0 km/h (0 Bft)
07.10.2022 05:55 10,8 C 10,8 C 92 % 1025,7 hPa 0,0 l/m 0,0 km/h (0 Bft) W-NW 288 0 min 0 W/m 9,6 C 10,8 C 0,0 km/h (0 Bft)
07.10.2022 05:50 10,8 C 10,7 C 92 % 1025,7 hPa 0,0 l/m 0,0 km/h (0 Bft) W-NW 288 0 min 0 W/m 9,6 C 10,8 C 0,0 km/h (0 Bft)
07.10.2022 05:45 10,7 C 10,7 C 92 % 1025,8 hPa 0,0 l/m 0,0 km/h (0 Bft) W-NW 288 0 min 0 W/m 9,5 C 10,7 C 0,0 km/h (0 Bft)
07.10.2022 05:40 10,7 C 10,7 C 92 % 1025,8 hPa 0,0 l/m 0,0 km/h (0 Bft) W-NW 288 0 min 0 W/m 9,5 C 10,7 C 0,0 km/h (0 Bft)
07.10.2022 05:35 10,7 C 10,7 C 92 % 1025,8 hPa 0,0 l/m 0,0 km/h (0 Bft) W-NW 288 0 min 0 W/m 9,5 C 10,7 C 0,0 km/h (0 Bft)
07.10.2022 05:30 10,7 C 10,7 C 92 % 1025,9 hPa 0,0 l/m 0,0 km/h (0 Bft) W-NW 288 0 min 0 W/m 9,5 C 10,7 C 0,0 km/h (0 Bft)
07.10.2022 05:25 10,7 C 10,7 C 92 % 1026,0 hPa 0,0 l/m 0,0 km/h (0 Bft) W-NW 288 0 min 0 W/m 9,5 C 10,7 C 0,0 km/h (0 Bft)
07.10.2022 05:20 10,7 C 10,7 C 92 % 1025,9 hPa 0,0 l/m 0,0 km/h (0 Bft) W-NW 288 0 min 0 W/m 9,5 C 10,7 C 0,0 km/h (0 Bft)
07.10.2022 05:15 10,7 C 10,6 C 92 % 1026,0 hPa 0,0 l/m 0,0 km/h (0 Bft) W-NW 288 0 min 0 W/m 9,5 C 10,7 C 0,0 km/h (0 Bft)
07.10.2022 05:10 10,7 C 10,6 C 92 % 1026,1 hPa 0,0 l/m 0,0 km/h (0 Bft) W-NW 286 0 min 0 W/m 9,5 C 10,7 C 0,0 km/h (0 Bft)
07.10.2022 05:05 10,6 C 10,6 C 92 % 1026,0 hPa 0,0 l/m 0,0 km/h (0 Bft) W-NW 286 0 min 0 W/m 9,4 C 10,6 C 0,0 km/h (0 Bft)
07.10.2022 05:00 10,6 C 10,6 C 92 % 1026,1 hPa 0,0 l/m 0,0 km/h (0 Bft) W-NW 286 0 min 0 W/m 9,4 C 10,6 C 0,0 km/h (0 Bft)
07.10.2022 04:55 10,6 C 10,6 C 92 % 1026,1 hPa 0,0 l/m 0,0 km/h (0 Bft) W-NW 286 0 min 0 W/m 9,4 C 10,6 C 0,0 km/h (0 Bft)
07.10.2022 04:50 10,6 C 10,6 C 92 % 1026,1 hPa 0,0 l/m 0,0 km/h (0 Bft) W-NW 286 0 min 0 W/m 9,4 C 10,6 C 0,0 km/h (0 Bft)
07.10.2022 04:45 10,6 C 10,6 C 92 % 1026,2 hPa 0,0 l/m 0,0 km/h (0 Bft) W-NW 286 0 min 0 W/m 9,4 C 10,6 C 0,0 km/h (0 Bft)
07.10.2022 04:40 10,6 C 10,5 C 92 % 1026,2 hPa 0,0 l/m 0,0 km/h (0 Bft) W-NW 286 0 min 0 W/m 9,4 C 10,6 C 0,0 km/h (0 Bft)
07.10.2022 04:35 10,5 C 10,5 C 92 % 1026,2 hPa 0,0 l/m 0,0 km/h (0 Bft) W-NW 286 0 min 0 W/m 9,3 C 10,5 C 0,0 km/h (0 Bft)
07.10.2022 04:30 10,6 C 10,5 C 92 % 1026,3 hPa 0,0 l/m 0,0 km/h (0 Bft) W-NW 286 0 min 0 W/m 9,4 C 10,6 C 0,0 km/h (0 Bft)
07.10.2022 04:25 10,6 C 10,5 C 92 % 1026,4 hPa 0,0 l/m 0,0 km/h (0 Bft) W-NW 286 0 min 0 W/m 9,4 C 10,6 C 0,0 km/h (0 Bft)
07.10.2022 04:20 10,5 C 10,4 C 92 % 1026,4 hPa 0,0 l/m 0,0 km/h (0 Bft) W-NW 286 0 min 0 W/m 9,3 C 10,5 C 0,0 km/h (0 Bft)
07.10.2022 04:15 10,5 C 10,4 C 92 % 1026,5 hPa 0,0 l/m 0,0 km/h (0 Bft) W-NW 286 0 min 0 W/m 9,3 C 10,5 C 0,0 km/h (0 Bft)
07.10.2022 04:10 10,5 C 10,4 C 92 % 1026,7 hPa 0,0 l/m 0,0 km/h (0 Bft) W-NW 286 0 min 0 W/m 9,3 C 10,5 C 0,0 km/h (0 Bft)
07.10.2022 04:05 10,4 C 10,4 C 92 % 1026,6 hPa 0,0 l/m 0,0 km/h (0 Bft) W-NW 286 0 min 0 W/m 9,2 C 10,4 C 0,0 km/h (0 Bft)
07.10.2022 04:00 10,4 C 10,4 C 92 % 1026,6 hPa 0,0 l/m 0,0 km/h (0 Bft) W-NW 286 0 min 0 W/m 9,2 C 10,4 C 0,0 km/h (0 Bft)
07.10.2022 03:55 10,4 C 10,4 C 92 % 1026,7 hPa 0,0 l/m 0,0 km/h (0 Bft) W-NW 286 0 min 0 W/m 9,2 C 10,4 C 0,0 km/h (0 Bft)
07.10.2022 03:50 10,4 C 10,4 C 92 % 1026,7 hPa 0,0 l/m 0,0 km/h (0 Bft) W-NW 286 0 min 0 W/m 9,2 C 10,4 C 0,0 km/h (0 Bft)
07.10.2022 03:45 10,4 C 10,4 C 92 % 1026,8 hPa 0,0 l/m 0,0 km/h (0 Bft) W-NW 286 0 min 0 W/m 9,2 C 10,4 C 0,0 km/h (0 Bft)
07.10.2022 03:40 10,4 C 10,3 C 92 % 1026,8 hPa 0,0 l/m 0,0 km/h (0 Bft) W-NW 287 0 min 0 W/m 9,2 C 10,4 C 0,0 km/h (0 Bft)
07.10.2022 03:35 10,4 C 10,3 C 92 % 1026,9 hPa 0,0 l/m 0,0 km/h (0 Bft) W-NW 287 0 min 0 W/m 9,2 C 10,4 C 0,0 km/h (0 Bft)
07.10.2022 03:30 10,3 C 10,3 C 92 % 1026,9 hPa 0,0 l/m 0,0 km/h (0 Bft) W-NW 287 0 min 0 W/m 9,1 C 10,3 C 0,0 km/h (0 Bft)
07.10.2022 03:25 10,4 C 10,3 C 92 % 1027,1 hPa 0,0 l/m 0,0 km/h (0 Bft) W-NW 287 0 min 0 W/m 9,2 C 10,4 C 0,0 km/h (0 Bft)
07.10.2022 03:20 10,3 C 10,3 C 92 % 1027,1 hPa 0,0 l/m 0,0 km/h (0 Bft) W-NW 287 0 min 0 W/m 9,1 C 10,3 C 0,0 km/h (0 Bft)
07.10.2022 03:15 10,3 C 10,3 C 92 % 1027,2 hPa 0,0 l/m 0,0 km/h (0 Bft) W-NW 289 0 min 0 W/m 9,1 C 10,3 C 0,0 km/h (0 Bft)
07.10.2022 03:10 10,3 C 10,3 C 92 % 1027,2 hPa 0,0 l/m 0,0 km/h (0 Bft) N-NW 337 0 min 0 W/m 9,1 C 10,3 C 0,0 km/h (0 Bft)
07.10.2022 03:05 10,3 C 10,3 C 92 % 1027,3 hPa 0,0 l/m 0,0 km/h (0 Bft) N-NW 338 0 min 0 W/m 9,1 C 10,3 C 0,0 km/h (0 Bft)
07.10.2022 03:00 10,3 C 10,3 C 91 % 1027,4 hPa 0,0 l/m 0,0 km/h (0 Bft) N-NW 338 0 min 0 W/m 8,9 C 10,3 C 0,0 km/h (0 Bft)
07.10.2022 02:55 10,3 C 10,3 C 91 % 1027,5 hPa 0,0 l/m 0,0 km/h (0 Bft) N-NW 338 0 min 0 W/m 8,9 C 10,3 C 0,0 km/h (0 Bft)
07.10.2022 02:50 10,3 C 10,3 C 91 % 1027,5 hPa 0,0 l/m 0,0 km/h (0 Bft) N 350 0 min 0 W/m 8,9 C 10,3 C 0,0 km/h (0 Bft)
07.10.2022 02:45 10,3 C 10,3 C 91 % 1027,6 hPa 0,0 l/m 0,0 km/h (0 Bft) N 350 0 min 0 W/m 8,9 C 10,3 C 0,0 km/h (0 Bft)
07.10.2022 02:40 10,3 C 10,3 C 91 % 1027,6 hPa 0,0 l/m 0,0 km/h (0 Bft) N 350 0 min 0 W/m 8,9 C 10,3 C 0,0 km/h (0 Bft)
07.10.2022 02:35 10,3 C 10,3 C 91 % 1027,7 hPa 0,0 l/m 0,0 km/h (0 Bft) N 350 0 min 0 W/m 8,9 C 10,3 C 0,0 km/h (0 Bft)
07.10.2022 02:30 10,3 C 10,3 C 91 % 1027,7 hPa 0,0 l/m 0,0 km/h (0 Bft) N 351 0 min 0 W/m 8,9 C 10,3 C 0,0 km/h (0 Bft)
07.10.2022 02:25 10,3 C 10,3 C 91 % 1027,7 hPa 0,0 l/m 0,0 km/h (0 Bft) N 355 0 min 0 W/m 8,9 C 10,3 C 0,0 km/h (0 Bft)
07.10.2022 02:20 10,3 C 10,3 C 90 % 1027,8 hPa 0,0 l/m 0,0 km/h (0 Bft) NO 48 0 min 0 W/m 8,7 C 10,3 C 0,0 km/h (0 Bft)
07.10.2022 02:15 10,3 C 10,3 C 90 % 1027,9 hPa 0,0 l/m 0,0 km/h (0 Bft) NO 48 0 min 0 W/m 8,7 C 10,3 C 0,0 km/h (0 Bft)
07.10.2022 02:10 10,3 C 10,3 C 90 % 1027,8 hPa 0,0 l/m 0,0 km/h (0 Bft) NO 48 0 min 0 W/m 8,7 C 10,3 C 0,0 km/h (0 Bft)
07.10.2022 02:05 10,3 C 10,3 C 90 % 1027,9 hPa 0,0 l/m 0,0 km/h (0 Bft) NO 48 0 min 0 W/m 8,7 C 10,3 C 0,0 km/h (0 Bft)
07.10.2022 02:00 10,3 C 10,3 C 90 % 1027,9 hPa 0,0 l/m 0,0 km/h (0 Bft) NO 48 0 min 0 W/m 8,7 C 10,3 C 0,0 km/h (0 Bft)
07.10.2022 01:55 10,4 C 10,3 C 90 % 1027,9 hPa 0,0 l/m 0,0 km/h (0 Bft) NO 48 0 min 0 W/m 8,8 C 10,4 C 0,0 km/h (0 Bft)
07.10.2022 01:50 10,4 C 10,4 C 90 % 1027,9 hPa 0,0 l/m 0,0 km/h (0 Bft) NO 49 0 min 0 W/m 8,8 C 10,4 C 0,0 km/h (0 Bft)
07.10.2022 01:45 10,4 C 10,4 C 90 % 1027,9 hPa 0,0 l/m 0,0 km/h (0 Bft) NO 48 0 min 0 W/m 8,8 C 10,4 C 0,0 km/h (0 Bft)
07.10.2022 01:40 10,4 C 10,4 C 90 % 1027,9 hPa 0,0 l/m 0,0 km/h (0 Bft) NO 49 0 min 0 W/m 8,8 C 10,4 C 0,0 km/h (0 Bft)
07.10.2022 01:35 10,4 C 10,4 C 90 % 1027,9 hPa 0,0 l/m 0,0 km/h (0 Bft) NO 48 0 min 0 W/m 8,8 C 10,4 C 0,0 km/h (0 Bft)
07.10.2022 01:30 10,4 C 10,4 C 90 % 1028,0 hPa 0,0 l/m 0,0 km/h (0 Bft) NO 48 0 min 0 W/m 8,8 C 10,4 C 0,0 km/h (0 Bft)
07.10.2022 01:25 10,4 C 10,4 C 89 % 1028,0 hPa 0,0 l/m 0,0 km/h (0 Bft) NO 48 0 min 0 W/m 8,7 C 10,4 C 0,0 km/h (0 Bft)
07.10.2022 01:20 10,4 C 10,4 C 89 % 1028,0 hPa 0,0 l/m 0,0 km/h (0 Bft) NO 48 0 min 0 W/m 8,7 C 10,4 C 0,0 km/h (0 Bft)
07.10.2022 01:15 10,4 C 10,4 C 89 % 1028,1 hPa 0,0 l/m 0,0 km/h (0 Bft) NO 46 0 min 0 W/m 8,7 C 10,4 C 0,0 km/h (0 Bft)
07.10.2022 01:10 10,4 C 10,4 C 89 % 1028,2 hPa 0,0 l/m 0,0 km/h (0 Bft) NO 46 0 min 0 W/m 8,7 C 10,4 C 0,0 km/h (0 Bft)
07.10.2022 01:05 10,5 C 10,4 C 89 % 1028,2 hPa 0,0 l/m 0,0 km/h (0 Bft) NO 46 0 min 0 W/m 8,8 C 10,5 C 0,0 km/h (0 Bft)
07.10.2022 01:00 10,5 C 10,4 C 89 % 1028,3 hPa 0,0 l/m 0,0 km/h (0 Bft) NO 46 0 min 0 W/m 8,8 C 10,5 C 0,0 km/h (0 Bft)
07.10.2022 00:55 10,5 C 10,4 C 89 % 1028,4 hPa 0,2 l/m 0,0 km/h (0 Bft) NO 46 0 min 0 W/m 8,8 C 10,5 C 0,0 km/h (0 Bft)
07.10.2022 00:50 10,5 C 10,5 C 89 % 1028,4 hPa 0,0 l/m 0,0 km/h (0 Bft) NO 46 0 min 0 W/m 8,8 C 10,5 C 0,0 km/h (0 Bft)
07.10.2022 00:45 10,5 C 10,5 C 89 % 1028,5 hPa 0,0 l/m 0,0 km/h (0 Bft) NO 46 0 min 0 W/m 8,8 C 10,5 C 0,0 km/h (0 Bft)
07.10.2022 00:40 10,5 C 10,5 C 88 % 1028,6 hPa 0,0 l/m 0,0 km/h (0 Bft) NO 46 0 min 0 W/m 8,6 C 10,5 C 0,0 km/h (0 Bft)
07.10.2022 00:35 10,5 C 10,5 C 89 % 1028,6 hPa 0,0 l/m 0,0 km/h (0 Bft) NO 46 0 min 0 W/m 8,8 C 10,5 C 0,0 km/h (0 Bft)
07.10.2022 00:30 10,5 C 10,5 C 88 % 1028,8 hPa 0,0 l/m 0,0 km/h (0 Bft) NO 46 0 min 0 W/m 8,6 C 10,5 C 0,0 km/h (0 Bft)
07.10.2022 00:25 10,5 C 10,5 C 88 % 1028,7 hPa 0,0 l/m 0,0 km/h (0 Bft) NO 46 0 min 0 W/m 8,6 C 10,5 C 0,0 km/h (0 Bft)
07.10.2022 00:20 10,6 C 10,5 C 88 % 1028,8 hPa 0,0 l/m 0,0 km/h (0 Bft) NO 46 0 min 0 W/m 8,7 C 10,6 C 0,0 km/h (0 Bft)
07.10.2022 00:15 10,6 C 10,5 C 88 % 1028,7 hPa 0,0 l/m 0,0 km/h (0 Bft) NO 46 0 min 0 W/m 8,7 C 10,6 C 0,0 km/h (0 Bft)
07.10.2022 00:10 10,6 C 10,6 C 88 % 1028,8 hPa 0,0 l/m 0,0 km/h (0 Bft) NO 46 0 min 0 W/m 8,7 C 10,6 C 0,0 km/h (0 Bft)
07.10.2022 00:05 10,6 C 10,6 C 88 % 1028,8 hPa 0,0 l/m 0,0 km/h (0 Bft) NO 46 0 min 0 W/m 8,7 C 10,6 C 0,0 km/h (0 Bft)
07.10.2022 00:00 10,6 C 10,6 C 88 % 1028,8 hPa 0,0 l/m 0,0 km/h (0 Bft) O-SO 115 0 min 0 W/m 8,7 C 10,6 C 0,0 km/h (0 Bft)
_ Min-Zeit 01:55 01:55 14:30 17:50 - 00:00 - - - - 00:25 02:00 00:00
Minimum _ 10,3 C 10,3 C 66 % 1019,3 hPa - 0,0 km/h (0 Bft) - - - - 8,6 C 10,3 C 0,0 km/h (0 Bft)
_ Max-Zeit 14:40 14:40 07:15 00:00 00:55 13:35 - - 00:00 00:00 14:50 14:50 13:35
Maximum _ 20,8 C 20,7 C 93 % 1028,8 hPa 0,2 l/m 7,5 km/h
NO (2 Bft)
- - 0 min 0 W/m 14,9 C 20,8 C 17,7 km/h
O (3 Bft)
Durchschnitt _ 14,4 C 14,3 C 83 % 1024,4 hPa #0,6 l/m 0,4 km/h (0 Bft) NO - #0 min. 0 W/m 11,4 C 14,4 C 2,0 km/h (1 Bft)